Preview of NWS' New Version of Forecast
This preview is not operational and should not be used for support decisions.

Regional Weather Roundup (RWR)

Issued by National Weather Service (NWS)

                            
000
ASUS42 KTBW 230215
RWRFL 
FLORIDA REGIONAL WEATHER ROUNDUP
NATIONAL WEATHER SERVICE TAMPA BAY RUSKIN FL
1000 PM EDT SAT JUN 22 2019

NOTE: "FAIR" INDICATES FEW OR NO CLOUDS BELOW 12,000 FEET WITH NO
SIGNIFICANT WEATHER AND/OR OBSTRUCTIONS TO VISIBILITY.

FLZ001>010-012>015-112-114-115-230300-
PANHANDLE FLORIDA
  
CITY           SKY/WX    TMP DP  RH WIND       PRES   REMARKS
PENSACOLA      FAIR      83  78  85 SW5       30.08R                  
PENSACOLA NAS  FAIR      81  79  94 SW3       30.08R                  
CRESTVIEW      FAIR      82  74  76 SW5       30.10R                  
DUKE FIELD     FAIR      82  76  83 SW6       30.09                   
VALPARAISO     FAIR      83  77  82 SW6       30.08R                  
MARY ESTHER    PTCLDY    83  76  79 SW3       30.07R                  
TRI COUNTY     FAIR      82  76  81 SW3       30.09R                  
PANAMA CITY    FAIR      82  77  84 SW5       30.08R HAZE             
TYNDALL AFB    FAIR      84  77  81 W9        30.07                   
APALACHICOLA   FAIR      83  76  79 W7        30.08R                  

STATION/POSITION SKY/WX   TEMP    WIND        PRES    WAVE   SWELL
                          AIR SEA DIR/SP/G            HT/PER HT/PER
                          (F)     (DEG/KT/KT) (MB)    (FT/S) (FT/S)
PANAMA CITY BEAC           84 84  240/  9/ 12 1019.1S
TOWER C          NOT AVBL

$$
FLZ011-016>038-118-127-128-134-139-239-230300-
NORTH FLORIDA
  
CITY           SKY/WX    TMP DP  RH WIND       PRES   REMARKS
MARIANNA       FAIR      85  76  74 W8        30.06R                  
TALLAHASSEE    FAIR      77  72  84 S3        30.07R                  
PERRY          FAIR      78  74  88 SW3       30.09R                  
LIVE OAK       CLEAR     81  79  94 CALM      30.07S                  
CROSS CITY     FAIR      82  78  88 SW9       30.09S                  
LAKE CITY      FAIR      79  75  89 W10       30.08S                  
GAINESVILLE    FAIR      82  76  81 W12       30.11R                  
PALATKA        CLOUDY    81  72  74 CALM      30.08R                  
MAYPORT NAS    FAIR      84  75  74 SW8       30.03S                  
JACKSONVILLE   MOCLDY    83  73  72 S5        30.03R                  
JAX NAS        FAIR      88  72  58 S6        30.05S                  
JAX CECIL      NOT AVBL                                               
FERNANDINA BEA FAIR      83  73  72 NE8       30.04S                  
ST AUGUSTINE   FAIR      77  68  73 SW7       30.06F                  
PALM COAST     FAIR      72  70  92 SW7       30.07F                  

STATION/POSITION SKY/WX   TEMP    WIND        PRES    WAVE   SWELL
                          AIR SEA DIR/SP/G            HT/PER HT/PER
                          (F)     (DEG/KT/KT) (MB)    (FT/S) (FT/S)
SHELL POINT      NOT AVBL
KEATON BEACH               84     240/ 12/ 13 1019.1R
CEDAR KEY                  84     250/  8/ 11 1018.9F
FERNANDINA                 86 85   10/  5/  9 1018.1R
30.7N   81.3W                 83                N/A     1/10
MAYPORT                    88 84  220/  6/  7 1017.5S
ST AUGUSTINE               76 78  230/  7/  9 1017.8F

$$
FLZ040-043>046-052-053-057-058-063-144-230300-
INTERIOR CENTRAL FLORIDA
  
CITY           SKY/WX    TMP DP  RH WIND       PRES   REMARKS
OCALA          FAIR      80  77  90 S3        30.10S                  
LEESBURG       FAIR      82  75  79 SW5       30.11R                  
SANFORD        FAIR      84  72  67 W8        30.09R                  
ORLANDO EXEC   FAIR      85  72  65 NW9       30.10S                  
ORLANDO INTL   FAIR      84  71  65 W8        30.10S                  
KISSIMMEE      FAIR      83  75  77 NW7       30.11S                  
WINTER HAVEN   FAIR      84  74  71 NW6       30.12R                  
LAKELAND       CLEAR     82  73  74 NW5       30.12R                  
BARTOW         FAIR      84  73  70 NW7       30.10S                  
SEBRING        FAIR      86  73  65 W5        30.10R                  
OKEECHOBEE     FAIR      79  73  83 CALM      30.09S                  

$$
FLZ041-047-054-059-064-141-147-230300-
EAST CENTRAL FLORIDA
  
CITY           SKY/WX    TMP DP  RH WIND       PRES   REMARKS
DAYTONA BEACH  MOCLDY    84  66  54 CALM      30.07F                  
DELAND         FAIR      82  72  69 CALM      30.09S                  
NEW SMYRNA BEA PTCLDY    84  68  58 NE13      30.11R                  
JFK SPACE CTR  FAIR      81  67  62 W5        30.08R                  
CAPE CANAVERAL FAIR      78  33  20 SE7       30.08R                  
PATRICK AFB    FAIR      86  77  74 W5        30.09  HX  98           
MELBOURNE      FAIR      86  74  67 W3        30.09R                  
VERO BEACH     FAIR      83  77  82 SE6       30.10R                  
FT PIERCE      FAIR      82  76  81 CALM      30.10R                  
STUART         FAIR      82  77  83 CALM      30.11R                  

STATION/POSITION SKY/WX   TEMP    WIND        PRES    WAVE   SWELL
                          AIR SEA DIR/SP/G            HT/PER HT/PER
                          (F)     (DEG/KT/KT) (MB)    (FT/S) (FT/S)
TRIDENT PIER               83 77  240/  3/  4 1020.1R
28.4N   80.5W                 75                N/A     1/10
27.5N   80.2W                 82                N/A     1

$$
FLZ050-056-061-142-242-148-248-149-249-151-251-155-255-
160-260-230300-
WEST CENTRAL FLORIDA
  
CITY           SKY/WX    TMP DP  RH WIND       PRES   REMARKS
CRYSTAL RIVER  FAIR     N/A N/A N/A CALM      30.09S                  
INVERNESS      FAIR      79  79 100 CALM      30.10S                  
BROOKSVILLE    FAIR      78  75  90 S3        30.11S                  
CLEARWATER AIR FAIR      82  73  74 NW5       30.11R                  
ST PETE CLEARW FAIR      83  75  77 W5        30.10S                  
TAMPA INTL     MOCLDY    84  76  76 N5        30.11S                  
PLANT CITY       N/A    N/A N/A N/A MISG        N/A                   
MACDILL AFB    FAIR      83  76  79 NW5       30.11                   
PETER O KNIGHT FAIR      86  77  74 N3        30.11S HX  97           
ST PETERSBURG  FAIR      85  76  74 NW6       30.09R                  
SARASOTA       FAIR      83  72  69 NW3       30.09R                  
VENICE         FAIR      86  75  70 NW7       30.10S HX  95           

STATION/POSITION SKY/WX   TEMP    WIND        PRES    WAVE   SWELL
                          AIR SEA DIR/SP/G            HT/PER HT/PER
                          (F)     (DEG/KT/KT) (MB)    (FT/S) (FT/S)
27.3N   84.2W                 85                N/A     1/ 8
CLEARWATER BEACH           85 89  300/  7/  9 1019.6S
MIDDLE TAMPA BAY           85     350/  8/  9 1019.6R
VENICE                     85 86  330/ 10/ 11 1019.1R

$$
FLZ066-069-070-075>078-162-262-165-265-230300-
SOUTHWEST FLORIDA AND KEYS
  
CITY           SKY/WX    TMP DP  RH WIND       PRES   REMARKS
PUNTA GORDA    FAIR      82  75  79 N7        30.10S                  
FT MYERS       FAIR      85  73  67 NW7       30.08S                  
SOUTHWEST INTL FAIR      86  75  69 NW5       30.09R HX  95           
NAPLES         FAIR      86  79  79 CALM      30.08S HX  99           
IMMOKALEE      FAIR      82  79  89 CALM      30.07R                  
MARATHON       FAIR      85  77  77 E5        30.09S HX  95           
KEY WEST NAS   MOCLDY    86  76  71 SE8       30.09S HX  96           
KEY WEST INTL  FAIR      84  77  79 SE9       30.09S                  

STATION/POSITION SKY/WX   TEMP    WIND        PRES    WAVE   SWELL
                          AIR SEA DIR/SP/G            HT/PER HT/PER
                          (F)     (DEG/KT/KT) (MB)    (FT/S) (FT/S)
NAPLES                     88 90              1018.8S
DRY TORTUGAS     NOT AVBL

$$
FLZ067-068-071>074-168-172>174-230300-
SOUTHEAST FLORIDA 
  
CITY           SKY/WX    TMP DP  RH WIND       PRES   REMARKS
W PALM BEACH   MOCLDY    85  72  65 SE6       30.10R                  
BOCA RATON     CLEAR     84  77  79 SE5       30.10R                  
FT LAUDER-EXEC FAIR      84  75  74 S5        30.09S                  
FT LAUDERDALE  MOCLDY    84  76  76 S6        30.09R                  
POMPANO BEACH  FAIR      85  76  74 S8        30.09S                  
PEMBROKE PINES FAIR      86  76  71 SE7       30.11R HX  96           
OPA LOCKA      FAIR      85  76  74 S3        30.10S                  
MIAMI          CLOUDY    85  75  72 S5        30.10R                  
WEST KENDALL   FAIR      85  77  77 S5        30.10R HX  95           
HOMESTEAD      FAIR      82  78  89 CALM      30.09                   

STATION/POSITION SKY/WX   TEMP    WIND        PRES    WAVE   SWELL
                          AIR SEA DIR/SP/G            HT/PER HT/PER
                          (F)     (DEG/KT/KT) (MB)    (FT/S) (FT/S)
VIRGINIA KEY               85 89  130/  5/  6 1018.7S
LAKE WORTH                 84 84  180/  8/  9 1020.4R
FOWEY ROCKS                84 85  150/  9/  9 1019.5R
SETTLEMENT POINT           85     200/  5/  5 1019.8R

$$